This is the latest recevied weather packets stored in our database for station/object KD0SBN-3. If no packets are shown the sender has not sent any weather packets the latest 10 day(s).
| Time | Temp. | Humidity | Pressure | Rain* | Wind** | Luminosity | Snow |
|---|---|---|---|---|---|---|---|
| 1777823507 | 12.78° C | 25% | 1029.6 hPa | 0 mm | - | 350 W/m² | - |
| 1777823204 | 12.22° C | 26% | 1029.7 hPa | 0 mm | - | 473 W/m² | - |
| 1777822902 | 12.22° C | 25% | 1029.7 hPa | 0 mm | - | 398 W/m² | - |
| 1777822600 | 11.67° C | 26% | 1029.6 hPa | 0 mm | - | 497 W/m² | - |
| 1777822297 | 11.67° C | 26% | 1029.7 hPa | 0 mm | - | 433 W/m² | - |
| 1777821994 | 12.22° C | 26% | 1029.6 hPa | 0 mm | - | 393 W/m² | - |
| 1777821692 | 11.67° C | 25% | 1029.6 hPa | 0 mm | - | 407 W/m² | - |
| 1777821390 | 11.67° C | 26% | 1029.6 hPa | 0 mm | - | 423 W/m² | - |
| 1777821086 | 12.22° C | 25% | 1029.6 hPa | 0 mm | - | 394 W/m² | - |
| 1777820783 | 11.67° C | 27% | 1029.7 hPa | 0 mm | - | 381 W/m² | - |
| 1777820479 | 11.67° C | 27% | 1029.7 hPa | 0 mm | - | 452 W/m² | - |
| 1777820177 | 11.67° C | 28% | 1029.8 hPa | 0 mm | - | 463 W/m² | - |
| 1777819874 | 11.11° C | 27% | 1029.8 hPa | 0 mm | - | 425 W/m² | - |
| 1777819571 | 11.11° C | 27% | 1029.8 hPa | 0 mm | - | 420 W/m² | - |
| 1777819269 | 10.56° C | 27% | 1029.6 hPa | 0 mm | - | 357 W/m² | - |
| 1777818965 | 10.56° C | 28% | 1029.8 hPa | 0 mm | - | 332 W/m² | - |
| 1777818662 | 10.56° C | 28% | 1029.8 hPa | 0 mm | - | 368 W/m² | - |
| 1777818359 | 10.56° C | 28% | 1030 hPa | 0 mm | - | 248 W/m² | - |
| 1777818055 | 10° C | 28% | 1030.1 hPa | 0 mm | - | 323 W/m² | - |
| 1777817752 | 10° C | 28% | 1029.8 hPa | 0 mm | - | 316 W/m² | - |
| 1777817450 | 10° C | 28% | 1029.7 hPa | 0 mm | - | 297 W/m² | - |
| 1777817145 | 10° C | 28% | 1029.6 hPa | 0 mm | - | 278 W/m² | - |
| 1777816843 | 10° C | 28% | 1029.4 hPa | 0 mm | - | 261 W/m² | - |
| 1777816540 | 9.44° C | 29% | 1029.7 hPa | 0 mm | - | 242 W/m² | - |
| 1777816237 | 9.44° C | 29% | 1029.8 hPa | 0 mm | - | 209 W/m² | - |
* Rain latest hour (hover to see other rain measurements)
** Current wind speed in m/s (hover to see current wind gust speed)